Location: Gunung Kajang
(2.4167°N, 113.7167°E)
Time: 15:57:13
(UTC+00:00)

Cosmos 967 Rocket - Pass Details

Date: 29 May 2022
Orbit: 944 x 993 km, 65.8° (Epoch: 28 June)

Event Time Altitude Azimuth Distance (km) Brightness Sun altitude
Exits shadow 20:48:38 23° 198° (SSW) 1,961 5.7 -20.8°
Maximum altitude 20:52:53 86° 111° (ESE) 986 4.5 -19.8°
Drops below altitude 10° 20:59:19 10° 22° (NNE) 2,736 7.5 -18.3°
Sets 21:01:53 0° 22° (NNE) 3,686 8.2 -17.7°
